| time (UTC) | temp F | wind direction | speed MPH | gust MPH | rain 1hr in | rain 24hr in | rain mn in | humidity % | barometer mb |
| 20260905172522 | 59 | 19 | 0.0 | 5.0 | 0.00 | 0.08 | 0.00 | 86 | 1007.8 |
| 20260905172501 | 60 | 19 | 1.0 | 5.0 | 0.00 | 0.08 | 0.00 | 86 | 1007.9 |
| 20260905172057 | 59 | 321 | 1.0 | 5.0 | 0.00 | 0.08 | 0.00 | 86 | 1007.8 |
| 20260905172028 | 60 | 321 | 2.0 | 5.0 | 0.00 | 0.08 | 0.00 | 86 | 1007.9 |
| 20260905171602 | 59 | 319 | 0.0 | 2.0 | 0.00 | 0.08 | 0.00 | 87 | 1007.9 |
| 20260905171457 | 59 | 5 | 0.0 | 2.0 | 0.00 | 0.08 | 0.00 | 87 | 1007.9 |
| 20260905171035 | 59 | 5 | 0.0 | 4.0 | 0.00 | 0.08 | 0.00 | 87 | 1007.8 |
| 20260905170953 | 59 | 5 | 0.0 | 4.0 | 0.00 | 0.08 | 0.00 | 87 | 1007.9 |
| 20260905170509 | 58 | 5 | 0.0 | 4.0 | 0.00 | 0.08 | 0.00 | 88 | 1007.8 |
| 20260905170448 | 59 | 5 | 0.0 | 4.0 | 0.00 | 0.08 | 0.00 | 88 | 1007.9 |
| 20260905170049 | 58 | 5 | 0.0 | 4.0 | 0.00 | 0.08 | 0.00 | 89 | 1007.9 |
| 20260905170010 | 59 | 5 | 0.0 | 4.0 | 0.00 | 0.08 | 0.00 | 89 | 1007.9 |
| 20260905165554 | 58 | 5 | 0.0 | 4.0 | 0.00 | 0.08 | 0.00 | 90 | 1007.9 |
| 20260905165459 | 58 | 5 | 0.0 | 4.0 | 0.00 | 0.08 | 0.00 | 90 | 1007.9 |
| 20260905165019 | 58 | 5 | 0.0 | 4.0 | 0.00 | 0.08 | 0.00 | 91 | 1008.0 |
| 20260905164948 | 58 | 5 | 0.0 | 4.0 | 0.00 | 0.08 | 0.00 | 91 | 1008.0 |
| 20260905164515 | 57 | 50 | 0.0 | 2.0 | 0.00 | 0.08 | 0.00 | 91 | 1007.9 |
| 20260905164457 | 58 | 50 | 0.0 | 2.0 | 0.00 | 0.08 | 0.00 | 91 | 1008.0 |
| 20260905164020 | 57 | 53 | 0.0 | 2.0 | 0.00 | 0.08 | 0.00 | 92 | 1007.9 |
| 20260905163947 | 58 | 53 | 0.0 | 2.0 | 0.00 | 0.08 | 0.00 | 92 | 1007.9 |
| 20260905163529 | 57 | 53 | 0.0 | 4.0 | 0.00 | 0.08 | 0.00 | 92 | 1007.9 |
| 20260905163443 | 58 | 53 | 0.0 | 4.0 | 0.00 | 0.08 | 0.00 | 92 | 1008.0 |
| 20260905163043 | 57 | 53 | 0.0 | 4.0 | 0.00 | 0.08 | 0.00 | 93 | 1007.9 |
| 20260905163002 | 57 | 53 | 1.0 | 4.0 | 0.00 | 0.08 | 0.00 | 93 | 1007.9 |
| 20260905162554 | 57 | 103 | 0.0 | 4.0 | 0.00 | 0.10 | 0.00 | 93 | 1007.9 |
| 20260905162452 | 57 | 103 | 0.0 | 4.0 | 0.00 | 0.10 | 0.00 | 93 | 1007.9 |
| 20260905162100 | 57 | 103 | 0.0 | 0.0 | 0.00 | 0.10 | 0.00 | 93 | 1007.9 |
| 20260905162008 | 57 | 103 | 0.0 | 0.0 | 0.00 | 0.10 | 0.00 | 93 | 1007.9 |
| 20260905161616 | 56 | 103 | 0.0 | 0.0 | 0.00 | 0.10 | 0.00 | 94 | 1008.0 |
| 20260905161509 | 57 | 103 | 0.0 | 4.0 | 0.00 | 0.10 | 0.00 | 94 | 1008.0 |